Location: East Irvine
(33.6759°N, 117.7598°W)
Time: 23:07:02
(UTC+00:00)

Sich 1 Rocket - Pass Details

Date: 15 November 2025
Orbit: 611 x 646 km, 82.5° (Epoch: 13 December)

Event Time Altitude Azimuth Distance (km) Brightness Sun altitude
Rises 02:25:21 0° 179° (S) 2,919 7.1 -20.2°
Reaches altitude 10° 02:27:35 10° 177° (S) 2,020 6.3 -20.7°
Maximum altitude 02:32:02 69° 95° (E) 687 3.5 -21.6°
Enters shadow 02:33:12 47° 29° (NNE) 852 3.9 -21.9°
